Погода Торгай

Хотите узнать прогноз погоды Торгай? Тогда Вам сюда: Погода Торгай

Поиск расширенной информации на нашем сайте:

Полезная информация:

Новости сайта



02.01.2020
Опубликован Долгосрочный прогноз погоды по городам России и ближнего зарубежья на январь 2020 года.
Карты: Прогноз на январь и февраль 2020 года, Сравнение прогнозируемой аномалии приземной температуры воздуха на январь 2020 года по разным моделям.




Погода Торгай - сегодня

Время (UTC), дата Ветер
(°,м/с) 
Видим.   Явления Облачность Т
(°С)
Тd
(°С)
f(%) Тe
(°С)
Pmin
(гПа)
dP
(гПа)
Po
(мм)
O2
(г/м3)
Тmin Tmax R s Состояние
почвы
12 22.10.21 200 (Ю) 10 км  {снег}  10/10 1000 м 
[Sc]
+4.3 +0.1 74 +1  1019.7  0.7  752  298           
15 22.10.21 200 (Ю) н/о    10/10 1000 м 
[Sc]
+6.1 +1.3 71 +3  1020.7  1.1  753  297    +6.3  0.7     
18 22.10.21 200 (Ю) н/о    4/0 средняя 
[Ac lent]
+5.6 +1 72 +4  1021.2  0.5  753  297    +6.3  0.7     
21 22.10.21 200 (Ю) н/о    3/0 средняя 
[Ac lent]
+4.7 +0.3 73 +3  1022  0.7  754  299           
00 23.10.21 200 (Ю) н/о    3/0 средняя 
[Ac lent]
+3.8 -0.2 75 +1  1022.5  0.5  754  300           
03 23.10.21 200 (Ю) 10 км  гроза, пыльная буря{снег}  ясно 
+3.3 -0.5 76 +2  1022.7  0.1  754  300           
06 23.10.21 200 (Ю) 10 км    ясно 
+10.6 +4.8 67 +8  1023  0.7  755  292  +3.3         
09 23.10.21 200 (Ю) 14  10 км    ясно 
+14.8 +7.1 60 +13  1022.5  -0.2  755  287           
12 23.10.21 200 (Ю) 10 км    3/0 средняя 
[Ac cast]
+15.2 +6.1 55 +14  1023  0.5  755  287           
15 23.10.21 200 (Ю) н/о    ясно 
+10.2 +2.3 58 +8  1024.3  0.9  756  293    +15.5       
18 23.10.21 200 (Ю) н/о    4/0 средняя 
[Ac trans]
+9.6 +2.5 61 +8  1025.2  0.8  756  294    +15.5       
21 23.10.21 200 (Ю) н/о    9/0 средняя 
[Ac trans]
+9.4 +2.3 61 +8  1025.6  0.4  757  294           
00 24.10.21 180 (Ю) н/о    9/0 средняя 
[Ac trans]
+7.2 +1.5 67 +6  1025.6  -0.1  757  297    -0.5       
03 24.10.21 180 (Ю) 10 км    ясно 
+3.2 -0.6 76 +2  1025.6  -0.2  756  301           
06 24.10.21 200 (Ю) 10 км    ясно 
+9.7 -0.2 50 +9  1024.8  -0.4  756  294  +3.2         
09 24.10.21 200 (Ю) 10 км    ясно 
+14.6 +1.9 42 +14  1022.9  -1.5  755  289           
12 24.10.21 200 (Ю) 10 км    ясно 
+14.1 +0 38 +14  1021.9  -1  754  289           
15 24.10.21 200 (Ю) н/о    ясно 
+7.9 -3 46 +7  1021.8  -0.5  754  296    +14.8       
18 24.10.21 180 (Ю) н/о    3/0 средняя 
[Ac lent]
+7.3 -2.7 49 +7  1020.9  -1  753  296    +14.8       
21 24.10.21 180 (Ю) н/о    3/0 средняя 
[Ac lent]
+5.1 -3.2 55 +4  1019.8  -1.2  752  298           
00 25.10.21 200 (Ю) н/о    3/0 средняя 
[Ac lent]
+3.4 -3.7 60 +3  1018.9  -1  752  299           
03 25.10.21 180 (Ю) 10 км    6/0 средняя 
[Ac lent]
+2.7 -3.9 62 +2  1018.3  -0.6  751  300           
06 25.10.21 180 (Ю) 10 км    6/0 средняя 
[Ac lent]
+9.2 +0.9 56 +9  1016.8  -1  750  292  +2.7         
09 25.10.21 160 (Ю) 10 км    8/0 средняя 
[Ac lent]
+13.8 +3 48 +15  1016.4  -0.2  750  287           
12 25.10.21 160 (Ю) 10 км    6/0 средняя 
[Ac lent]
+13.4 +0.6 42 +15  1014.8  -1.6  749  288           
Время (UTC), дата Ветер
(°,м/с) 
Видим.   Явления Облачность Т
(°С)
Тd
(°С)
f(%) Тe
(°С)
Pmin
(гПа)
dP
(гПа)
Po
(мм)
O2
(г/м3)
Тmin Tmax R s Состояние
почвы

Для получения пояснительной информации подведите курсор к названию столбца.

ПОГОДА Торгай - архив

Всё, что Вы хотите узнать о погоде Торгай - удобно и подробно!

Выберите нужную дату (начиная с 1 января 2019* года) и нажмите кнопку "Найти".
Будут отображены архивные сводки погоды по пункту Торгай, начиная с указанной даты.


Отображать данные в формате CSV (для использования в таблицах Excel)


Внимание! Наш архив погоды предназначен исключительно для личного некоммерческого использования в познавательных целях. Если Вам необходимы официальные справки о состоянии погоды (для производственных, юридических, коммерческих и т.п. целей), обращайтесь в органы Росгидромета.

*Примечание: данная дата относится к архиву по метеостанциям СССР (Россия, СНГ, Балтия).
Архив по метеостанциям Зарубежной Европы и Азии (кроме Китая) хранится 10 дней, по другим регионам земного шара (Китай, Африка, Америка, Австралия, Океания) - 1 день.

Торгай - район местоположения метеостанции


Название, широта, долгота, высота метеостанции:
Торгай 49.7°ш. 63.5°д. 123 м над ур. моря [Казахстан]

Дополнительная информация

В oтличие oт бoльшинства пoгoдных сайтoв мы публикуем пoдрoбную метеoинфoрмацию в детальнoм прoфессиoнальнoм фoрмате.

Характеристики температуры и влажнoсти вoздуха измеряются на высoте 2 м в тени вдали oт зданий и деревьев.
Скoрoсть ветра измеряется на высoте 10 м (на урoвне рoста челoвека скoрoсть ветра ниже в 1.5-2 раза). Если метеoстанция нахoдится в гoрoде или в лесу, тo скoрoсть ветра занижена на 2-4 м/с пo сравнению с oткрытым местoм. Скoрoсть ветра над акватoриями крупных рек и oзёр, а также на вершинах хoлмoв на 2-5 м/с выше, чем в oбычных услoвиях.
Атмoсфернoе давление в разных тoчках местнoсти мoжет значительнo oтличаться oт давления на метеoстанции, в зависимoсти oт услoвий рельефа (при пoдъёме на 10 м давление пoнижается примернo на 1 мм рт.ст.).